Hourly Data Report for March 14, 2019

TORONTO CITY
ONTARIO
Current Station Operator: ECCC - MSC

43°40'00.000" N
79°24'00.000" W
112.50 m
6158355
71508
XTO

Download Data

Hourly Data (March 2019)
Hourly Data Report for March 14, 2019
TIME
LST
Temp Definition
°C
Dew Point Definition
°C
Rel Hum Definition
%
Precip. Amount Definition
mm

Wind Dir Definition
10's deg

Wind Spd Definition
km/h
Visibility Definition
km
Stn Press Definition
kPa
Hmdx Definition


Wind Chill Definition


Weather Definition


00:00 2.5 -0.3 82 0.0 LegendMM LegendMM   100.38     LegendNANA
01:00 2.5 -0.3 82 0.0 LegendMM LegendMM   100.36     LegendNANA
02:00 2.8 -0.7 78 0.0 LegendMM LegendMM   100.40     LegendNANA
03:00 3.1 -1.1 74 0.0 LegendMM LegendMM   100.31     LegendNANA
04:00 3.0 -1.2 74 0.0 LegendMM LegendMM   100.22     LegendNANA
05:00 3.1 -1.0 74 0.0 LegendMM LegendMM   100.18     LegendNANA
06:00 3.5 -1.0 72 0.0 LegendMM LegendMM   100.17     LegendNANA
07:00 3.5 -0.8 73 0.0 LegendMM LegendMM   100.10     LegendNANA
08:00 4.2 -0.8 70 0.0 LegendMM LegendMM   100.02     LegendNANA
09:00 5.4 -0.6 65 0.0 LegendMM LegendMM   99.97     LegendNANA
10:00 6.2 -0.8 61 0.0 LegendMM LegendMM   99.90     LegendNANA
11:00 6.4 -0.6 61 0.0 LegendMM LegendMM   99.77     LegendNANA
12:00 6.6 0.1 63 0.0 LegendMM LegendMM   99.70     LegendNANA
13:00 6.1 1.0 69 0.0 LegendMM LegendMM   99.61     LegendNANA
14:00 6.7 1.5 69 0.2 LegendMM LegendMM   99.41     LegendNANA
15:00 7.4 1.7 67 0.0 LegendMM LegendMM   99.40     LegendNANA
16:00 7.9 2.0 66 0.0 LegendMM LegendMM   99.29     LegendNANA
17:00 7.9 2.2 67 0.0 LegendMM LegendMM   99.26     LegendNANA
18:00 7.0 3.7 79 0.4 LegendMM LegendMM   99.00     LegendNANA
19:00 6.8 4.5 85 1.9 LegendMM LegendMM   99.13     LegendNANA
20:00 7.1 5.0 87 2.3 LegendMM LegendMM   98.90     LegendNANA
21:00 8.1 5.8 86 0.9 LegendMM LegendMM   98.63     LegendNANA
22:00 9.5 6.0 79 0.0 LegendMM LegendMM   98.56     LegendNANA
23:00 9.3 5.0 74 0.0 LegendMM LegendMM   98.52     LegendNANA

Notes on Data Quality.

Legend

  • E = Estimated
  • M = Missing
  • NA = Not Available*
  • [empty] = Indicates an unobserved value
Date modified: